Back to catalog

YAOGAN-30 F

AliveMilitaryVLEO
NORAD 43030·PAYLOAD·🇨🇳 China

Launched Nov 24, 2017 from Xichang Satellite Launch Center

Loading…

Next Passes (next 24 hours)

TLE

FreshSource: Space-Track

Epoch: Sep 14, 2026, 22:22 UTC

1 43030U 17075C   26257.93220280  .00002145  00000-0  15807-3 0  9994
2 43030  34.9947  83.0403 0001402 118.1141 241.9710 15.03071093480937

Track YAOGAN-30 F in real time with AllMySat

Download on the App Store